Location: NJAA Observatory
(40.6819°N, 74.8979°W)
Time: 03:41:55
(UTC-04:00)

S-56A Canister/Altair - Visible Passes

Search period start: 26 October 2014 00:00
Search period end: 04 November 2014 23:00
Orbit: 632 x 2503 km, 38.9° (Epoch: 25 October)

Date Brightness Start Highest point End Pass type
(mag) Time Alt. Az. Time Alt. Az. Time Alt. Az.
26 Oct 11.2 00:00:00 14° W 00:01:17 18° W 00:01:17 18° W visible
26 Oct 10.1 19:11:33 10° SW 19:26:11 60° SSE 19:35:49 23° E visible
26 Oct 9.5 21:17:32 10° WSW 21:32:43 82° S 21:33:16 80° SE visible
26 Oct 10.9 23:25:06 10° W 23:30:43 28° W 23:30:43 28° W visible
27 Oct 10.2 18:38:50 10° SW 18:53:08 56° SSE 19:05:13 15° E visible
27 Oct 9.6 20:44:22 10° WSW 20:59:39 81° S 21:02:41 62° E visible
27 Oct 10.4 22:51:46 10° W 23:00:08 41° W 23:00:08 41° W visible
28 Oct 10.4 18:06:15 10° SW 18:20:07 53° SSE 18:33:48 10° ENE visible
28 Oct 9.8 20:11:17 10° WSW 20:26:33 79° SSE 20:32:03 46° E visible
28 Oct 10.0 22:18:27 10° W 22:29:30 56° W 22:29:30 56° W visible
29 Oct 11.5 00:26:10 10° WNW 00:26:57 12° W 00:26:57 12° W visible
29 Oct 9.9 19:38:17 10° WSW 19:53:24 77° SSE 20:01:25 33° E visible
29 Oct 9.7 21:45:11 10° W 21:58:52 75° WSW 21:58:52 75° WSW visible
29 Oct 11.2 23:52:47 10° WNW 23:56:19 20° W 23:56:19 20° W visible
30 Oct 10.0 19:05:23 10° WSW 19:20:15 75° SSE 19:30:46 23° E visible
30 Oct 9.6 21:11:57 10° W 21:27:17 83° S 21:28:13 79° SE visible
30 Oct 10.9 23:19:26 10° WNW 23:25:39 30° W 23:25:39 30° W visible
31 Oct 10.1 18:32:36 10° WSW 18:47:06 72° SSE 19:00:06 14° E visible
31 Oct 9.6 20:38:48 10° W 20:54:10 84° S 20:57:33 61° ESE visible
31 Oct 10.5 22:46:07 10° W 22:55:00 41° W 22:55:00 41° W visible
01 Nov 10.2 17:59:55 10° WSW 18:13:58 69° SSE 18:28:35 10° E visible
01 Nov 9.9 20:05:44 10° W 20:21:00 84° S 20:26:54 45° E visible
01 Nov 10.1 22:12:50 10° W 22:24:21 56° WSW 22:24:21 56° WSW visible
02 Nov 11.5 00:20:53 10° W 00:21:48 12° W 00:21:48 12° W visible
02 Nov 10.0 18:32:45 10° W 18:47:47 84° S 18:56:15 32° E visible
02 Nov 9.8 20:39:37 10° W 20:53:42 70° SW 20:53:42 70° SW visible
02 Nov 11.3 22:47:22 10° WNW 22:51:09 20° W 22:51:09 20° W visible
03 Nov 10.0 17:59:51 10° W 18:14:34 83° S 18:25:38 22° E visible
03 Nov 9.7 20:06:27 10° W 20:21:41 75° SSW 20:23:05 71° SSE visible
03 Nov 10.9 22:13:56 10° WNW 22:20:32 28° W 22:20:32 28° W visible
04 Nov 10.1 17:27:04 10° WSW 17:41:21 82° S 17:55:03 14° E visible
04 Nov 9.8 19:33:22 10° W 19:48:34 78° SSW 19:52:30 57° SE visible
04 Nov 10.6 21:40:35 10° WNW 21:49:58 38° WSW 21:49:58 38° WSW visible
